Tracking 20066 objects as of 7-Dec-2019
HD Live streaming from Space Station
objects crossing your sky now

CZ-2D DEB

Track CZ-2D DEB now!
10-day predictions


NORAD ID: 43096
Int'l Code: 2017-084C
Perigee: 478.0 km
Apogee: 498.3 km
Inclination: 97.4 °
Period: 94.2 minutes
Semi major axis: 6859 km
RCS: Unknown
Launch date: December 23, 2017
Source: People's Republic of China (PRC)
Launch site: Jiuquan Satellite Launch Center, China (JSC)

Note: This is SATELLITE DEBRIS
aabbcc
Your satellite tracking list
Your tracking list is empty




NASA's NSSDC Master Catalog

Two Line Element Set (TLE):
1 43096U 17084C   19340.50207757  .00001681  00000-0  63653-4 0  9995
2 43096  97.4295  62.3281 0014799 296.4222  63.5499 15.28265946108305
Source of the keplerian elements: AFSPC